User: anonymous   Login
Location: Unspecified
(0.0000°N, 0.0000°E)
Time: 18:31:27
(UTC+00:00)
Language:

FALCONSAT 3 - Orbit

View from above orbital plane
View from above orbital plane
View from above satellite
View from above satellite

Ground track
Ground track

The orbit data is extracted from the following two-line orbital elements,

1 30776U 07006E   19114.18327674  .00002814  00000-0  79909-4 0  9993
2 30776  35.4350  84.8777 0003236 309.5482  50.4958 15.35949835672144
Epoch (UTC): 24 April 2019 04:23:55
Eccentricity: 0.0003236
inclination: 35.4350°
perigee height: 456 km
apogee height: 460 km
right ascension of ascending node: 84.8777°
argument of perigee: 309.5482°
revolutions per day: 15.35949835
mean anomaly at epoch: 50.4958°
orbit number at epoch: 67214

The dashed part of the orbit path shows where the satellite is in the earth's shadow,  

DLR